sat.trackr.live / text

‹ back to catalog

STARLINK-37197

NORAD 68389 · 2026-063K

PAYLOAD ACTIVE UNKNOWN

§ Identity

Operator
Country
US
Launch date
2026-03-26
Launch site
AFWTR
Launch vehicle
Mass (kg)
RCS (m²)

Purposes: comms

External: N2YO · Heavens-Above · Gunter

§ Orbital elements

Epoch: 2026-09-19T15:45:39.449376Z

Period
93.91 min
Inclination
97.2861°
Eccentricity
0.0001426
Mean motion
15.33451739 rev/d
Perigee alt
464.5 km
Apogee alt
466.5 km
Semi-major
6,843.7 km
B*
3.3311e-4
RAAN
43.5955°
Arg perigee
96.9346°
Mean anomaly
263.2060°
Rev number
2,762

§ Raw data

STARLINK-371971 68389U 26063K   26262.65670659  .00010696  00000+0  33311-3 0  99982 68389  97.2861  43.5955 0001426  96.9346 263.2060 15.33451739 27627

JSON: /api/v1/satellites/68389 · /tle

For live sub-satellite position, see the globe view (requires WebGL).

§ Visibility from observer

Set your observer location to see the next 7 days of passes ≥ 10°. The values pass through the URL so the page stays shareable.

No JS? Fill the form by hand. The geolocation button needs JavaScript.